Vernon, TX

11:12 PM CST on December 13, 2019 (GMT -0600)
Vernon

Weather History for KF05 - October, 2019

Change the Weather History Date:

Monday, October 21, 2019

  Actual Average (KLTS) Record (KLTS)
Temperature  
Mean Temperature 57 °F -  
Max Temperature 81 °F 71 °F 95 °F (2012)
Min Temperature 42 °F 48 °F 35 °F (1999)
Degree Days  
Heating Degree Days 8    
Growing Degree Days 7 (Base 50)    
Moisture  
Dew Point 25 °F    
Average Humidity 30    
Maximum Humidity 56    
Minimum Humidity 15    
Precipitation  
Precipitation 0.00 in - - ()
Sea Level Pressure  
Sea Level Pressure 29.94 in    
Wind  
Wind Speed 9 mph (NW)    
Max Wind Speed 14 mph    
Max Gust Speed 22 mph    
Visibility 10 miles    
Events      
Averages and records for this station are not official NWS values.
T = Trace of Precipitation, MM = Missing Value Source: NWS Daily Summary

Daily Weather History Graph

Daily Weather History Graph

Search for Another Location

Airport or City:

Astronomy

Oct. 21, 2019 Rise Set
Actual Time 7:47 AM CDT 6:55 PM CDT
Civil Twilight 7:21 AM CDT 7:21 PM CDT
Nautical Twilight 6:52 AM CDT 7:50 PM CDT
Astronomical Twilight 6:23 AM CDT 8:19 PM CDT
Moon 12:17 AM CDT (10/21) 2:57 PM CDT (10/21)
Length of Visible Light 11h 59m
Length of Day
11h 08m
Waning Gibbous, 48% of the Moon is Illuminated
Oct 21
Waning Gibbous
Oct 27
New
Nov 4
First Quarter
Nov 12
Full
Nov 19
Last Quarter

Hourly Weather History & Observations

Time (CDT) Temp. Windchill Dew Point Humidity Pressure Visibility Wind Dir Wind Speed Gust Speed Precip Events Conditions
12:15 AM 63.7 °F - 28.0 °F 26% 29.71 in 10.0 mi North 12.7 mph - N/A   Clear
12:35 AM 63.7 °F - 27.3 °F 25% 29.70 in 10.0 mi North 11.5 mph - N/A   Clear
12:55 AM 62.4 °F - 27.0 °F 26% 29.70 in 10.0 mi North 9.2 mph - N/A   Clear
1:15 AM 60.4 °F - 27.1 °F 28% 29.71 in 10.0 mi NNW 11.5 mph - N/A   Clear
1:35 AM 59.5 °F - 26.6 °F 28% 29.72 in 10.0 mi NNW 10.4 mph - N/A   Clear
1:55 AM 59.0 °F - 26.8 °F 29% 29.75 in 10.0 mi NNW 12.7 mph - N/A   Clear
2:35 AM 57.2 °F - 24.3 °F 28% 29.80 in 10.0 mi North 6.9 mph - N/A   Clear
2:55 AM 55.4 °F - 23.7 °F 29% 29.81 in 10.0 mi North 3.5 mph - N/A   Clear
3:15 AM 53.2 °F - 23.9 °F 32% 29.82 in 10.0 mi NNW 9.2 mph - N/A   Clear
3:35 AM 50.9 °F - 24.3 °F 35% 29.84 in 10.0 mi NW 4.6 mph - N/A   Clear
3:55 AM 49.3 °F - 23.5 °F 36% 29.84 in 10.0 mi Calm Calm - N/A   Clear
4:15 AM 50.2 °F - 24.1 °F 36% 29.84 in 10.0 mi West 3.5 mph - N/A   Clear
4:35 AM 48.4 °F - 25.2 °F 40% 29.86 in 10.0 mi West 5.8 mph - N/A   Clear
4:55 AM 46.8 °F - 25.7 °F 44% 29.87 in 10.0 mi West 8.1 mph - N/A   Clear
5:15 AM 45.5 °F 40.8 °F 26.1 °F 47% 29.88 in 10.0 mi West 9.2 mph - N/A   Clear
5:35 AM 44.6 °F 39.7 °F 26.4 °F 49% 29.89 in 10.0 mi West 9.2 mph - N/A   Clear
5:55 AM 45.0 °F 40.6 °F 26.6 °F 49% 29.90 in 10.0 mi West 8.1 mph - N/A   Clear
6:15 AM 44.2 °F 38.8 °F 26.6 °F 50% 29.91 in 10.0 mi West 10.4 mph - N/A   Clear
6:35 AM 44.8 °F 39.4 °F 26.4 °F 49% 29.92 in 10.0 mi West 10.4 mph - N/A   Clear
6:55 AM 44.2 °F 39.2 °F 26.6 °F 50% 29.93 in 10.0 mi West 9.2 mph - N/A   Clear
7:15 AM 42.8 °F 38.0 °F 27.1 °F 54% 29.93 in 10.0 mi West 8.1 mph - N/A   Clear
7:35 AM 42.3 °F 36.8 °F 27.3 °F 56% 29.94 in 10.0 mi West 9.2 mph - N/A   Clear
7:55 AM 43.0 °F 37.7 °F 27.5 °F 54% 29.94 in 10.0 mi West 9.2 mph - N/A   Clear
8:15 AM 43.7 °F 39.1 °F 27.3 °F 53% 29.95 in 10.0 mi West 8.1 mph - N/A   Clear
8:35 AM 45.7 °F 42.0 °F 27.3 °F 49% 29.95 in 10.0 mi West 6.9 mph - N/A   Clear
8:55 AM 47.7 °F - 27.7 °F 46% 29.96 in 10.0 mi West 4.6 mph - N/A   Clear
9:15 AM 49.8 °F - 27.9 °F 43% 29.96 in 10.0 mi West 6.9 mph - N/A   Clear
9:35 AM 53.4 °F - 27.5 °F 37% 29.97 in 10.0 mi WNW 9.2 mph - N/A   Clear
9:55 AM 57.2 °F - 26.8 °F 31% 29.98 in 10.0 mi NW 10.4 mph - N/A   Clear
10:15 AM 59.2 °F - 26.8 °F 29% 29.99 in 10.0 mi NW 10.4 mph - N/A   Clear
10:35 AM 60.6 °F - 27.1 °F 28% 29.99 in 10.0 mi NNW 13.8 mph 21.9 mph N/A   Clear
10:55 AM 62.1 °F - 27.0 °F 26% 29.99 in 10.0 mi NNW 12.7 mph 16.1 mph N/A   Clear
11:15 AM 63.3 °F - 27.3 °F 26% 29.99 in 10.0 mi NNW 11.5 mph - N/A   Clear
11:35 AM 64.6 °F - 26.8 °F 24% 29.99 in 10.0 mi NNW 13.8 mph 17.3 mph N/A   Clear
11:55 AM 65.5 °F - 26.6 °F 23% 29.99 in 10.0 mi North 12.7 mph - N/A   Clear
12:15 PM 66.2 °F - 26.6 °F 23% 29.99 in 10.0 mi NNW 6.9 mph - N/A   Clear
12:35 PM 66.9 °F - 26.6 °F 22% 29.99 in 10.0 mi NNW 10.4 mph - N/A   Clear
12:55 PM 67.3 °F - 26.8 °F 22% 29.99 in 10.0 mi North 9.2 mph - N/A   Clear
1:15 PM 68.2 °F - 26.4 °F 21% 29.99 in 10.0 mi North 8.1 mph - N/A   Clear
1:35 PM 68.5 °F - 25.3 °F 20% 29.98 in 10.0 mi NW 5.8 mph - N/A   Clear
1:55 PM 69.4 °F - 26.4 °F 20% 29.97 in 10.0 mi NW 10.4 mph 16.1 mph N/A   Clear
2:15 PM 70.0 °F - 25.5 °F 19% 29.96 in 10.0 mi North 12.7 mph - N/A   Clear
2:35 PM 70.5 °F - 25.9 °F 19% 29.95 in 10.0 mi NW 10.4 mph - N/A   Clear
2:55 PM 71.2 °F - 25.3 °F 18% 29.94 in 10.0 mi NW 8.1 mph - N/A   Clear
3:15 PM 71.2 °F - 24.6 °F 17% 29.94 in 10.0 mi WNW 10.4 mph - N/A   Clear
3:35 PM 71.8 °F - 24.3 °F 17% 29.93 in 10.0 mi NNW 6.9 mph - N/A   Clear
3:55 PM 72.0 °F - 23.9 °F 17% 29.94 in 10.0 mi West 6.9 mph - N/A   Clear
4:15 PM 72.0 °F - 23.4 °F 16% 29.94 in 10.0 mi West 9.2 mph - N/A   Clear
4:35 PM 72.1 °F - 23.0 °F 16% 29.94 in 10.0 mi NW 13.8 mph - N/A   Clear
4:55 PM 72.1 °F - 23.0 °F 16% 29.94 in 10.0 mi North 4.6 mph - N/A   Clear
5:15 PM 72.1 °F - 22.1 °F 15% 29.95 in 10.0 mi WNW 10.4 mph 19.6 mph N/A   Clear
5:35 PM 72.0 °F - 21.4 °F 15% 29.95 in 10.0 mi NW 11.5 mph - N/A   Clear
5:55 PM 71.6 °F - 21.2 °F 15% 29.96 in 10.0 mi West 10.4 mph - N/A   Clear
6:15 PM 70.7 °F - 21.2 °F 15% 29.96 in 10.0 mi NW 9.2 mph - N/A   Clear
6:35 PM 69.3 °F - 21.4 °F 16% 29.97 in 10.0 mi NW 6.9 mph - N/A   Clear
6:55 PM 66.4 °F - 21.7 °F 18% 29.98 in 10.0 mi NW 3.5 mph - N/A   Clear
7:15 PM 63.9 °F - 21.9 °F 20% 29.98 in 10.0 mi NNW 4.6 mph - N/A   Clear
7:35 PM 61.0 °F - 23.4 °F 24% 29.99 in 10.0 mi NNW 4.6 mph - N/A   Clear
7:55 PM 58.1 °F - 23.7 °F 27% 30.00 in 10.0 mi NNW 4.6 mph - N/A   Clear
8:15 PM 59.2 °F - 22.6 °F 25% 30.02 in 10.0 mi Calm Calm - N/A   Clear
8:35 PM 59.2 °F - 22.6 °F 25% 30.03 in 10.0 mi NNW 4.6 mph - N/A   Clear
8:55 PM 55.8 °F - 24.1 °F 29% 30.03 in 10.0 mi NNW 5.8 mph - N/A   Clear
9:15 PM 55.0 °F - 24.4 °F 31% 30.04 in 10.0 mi North 5.8 mph - N/A   Clear
9:35 PM 54.3 °F - 23.9 °F 31% 30.05 in 10.0 mi North 5.8 mph - N/A   Clear
9:55 PM 54.5 °F - 24.3 °F 31% 30.06 in 10.0 mi Calm Calm - N/A   Clear
10:15 PM 54.7 °F - 25.5 °F 32% 30.06 in 10.0 mi Calm Calm - N/A   Clear
10:35 PM 55.0 °F - 24.1 °F 30% 30.07 in 10.0 mi Calm Calm - N/A   Clear
10:55 PM 55.9 °F - 22.8 °F 28% 30.09 in 10.0 mi Calm Calm - N/A   Clear
11:15 PM 50.9 °F - 23.9 °F 35% 30.10 in 10.0 mi Calm Calm - N/A   Clear
11:35 PM 51.8 °F - 24.1 °F 34% 30.10 in 10.0 mi Calm Calm - N/A   Clear